This demonstration page uses our WeatherBlox Daily Observations layout. Learn more.

41.86663, -103.66717

Hourly Observations for June 2, 2019

Temp ( °F °C ) Dew Point ( °F °C ) Humidity (%) Winds ( mph kmh ) Pressure ( in mb ) Visibility ( mi km ) Precip ( " mm )
12:53 am 00:53 Clear 54 12.2 51 10.6 90 90 E 7 11 29.95 1014 10 16.0934 0 0
1:53 am 01:53 Clear 54 12.2 51 10.6 90 90 E 8 13 29.93 1014 10 16.0934 0 0
2:53 am 02:53 Clear 54 12.2 53 11.7 97 97 E 8 13 29.92 1013 10 16.0934 0 0
3:53 am 03:53 Clear 53 11.7 51 10.6 93 93 ESE 7 11 29.92 1013 10 16.0934 0 0
4:53 am 04:53 Clear 53 11.7 52 11.1 96 96 ESE 9 15 29.91 1013 7 11.26538 0 0
5:53 am 05:53 Sunny with Mist and Fog 52 11.1 52 11.1 100 100 E 8 13 29.91 1013 5 8.0467 0 0
6:53 am 06:53 Sunny 55 12.8 54 12.2 96 96 ESE 10 17 29.9 1013 7 11.26538 0 0
7:53 am 07:53 Sunny 59 15 55 12.8 87 87 ESE 10 17 29.9 1013 8 12.87472 0 0
8:53 am 08:53 Sunny 65 18.3 55 12.8 70 70 SE 9 15 29.9 1013 10 16.0934 0 0
9:53 am 09:53 Sunny 72 22.2 57 13.9 59 59 SSE 13 20 29.89 1012 10 16.0934 0 0
10:53 am 10:53 Sunny 74 23.3 58 14.4 57 57 SSE 15 24 29.88 1012 10 16.0934 0 0
11:53 am 11:53 Sunny 76 24.4 56 13.3 50 50 S 17 28 29.85 1011 10 16.0934 0 0
12:53 pm 12:53 Sunny 78 25.6 57 13.9 48 48 SE 20 31 29.83 1010 10 16.0934 0 0
1:53 pm 13:53 Sunny 78 25.6 57 13.9 48 48 SSE 14 22 29.81 1010 10 16.0934 0 0
2:53 pm 14:53 Sunny 81 27.2 59 15 47 47 SE 14 22 29.79 1009 10 16.0934 0 0
3:53 pm 15:53 Sunny 78 25.6 57 13.9 48 48 S 10 17 29.8 1009 10 16.0934 0 0
4:53 pm 16:53 Sunny 75 23.9 59 15 58 58 SE 9 15 29.77 1008 10 16.0934 0 0
5:53 pm 17:53 Mostly Cloudy with Light Rain 74 23.3 50 10 43 43 SSE 15 24 29.78 1008 10 16.0934 0 0.0254
5:56 pm 17:56 Mostly Cloudy with Nearby Thunderstorms 73 23 48 9 41 41 SE 17 28 29.64 1004 10 16.0934 0 0
6:21 pm 18:21 Sunny 73 22.8 48 8.9 41 41 SSE 15 24 29.66 1005 10 16.0934 0 0.0254
6:53 pm 18:53 Sunny 75 23.9 47 8.3 37 37 VRB 3 6 29.8 1009 10 16.0934 0 0.0254
7:53 pm 19:53 Sunny 69 20.6 52 11.1 55 55 S 10 17 29.87 1012 10 16.0934 0 0
8:53 pm 20:53 Clear 62 16.7 53 11.7 73 73 Calm 29.82 1010 10 16.0934 0 0
9:53 pm 21:53 Clear 59 15 53 11.7 81 81 N 7 11 29.86 1011 10 16.0934 0 0
10:53 pm 22:53 Clear 58 14.4 53 11.7 84 84 S 3 6 29.85 1011 10 16.0934 0 0
11:53 pm 23:53 Clear 53 11.7 52 11.1 96 96 W 10 17 29.87 1011 10 16.0934 0 0

Powered by AerisWeather